BMA8VN EGAC-EGLL

Flight info

Callsign BMA8VN
Flight time 0h 47m
Altitude 33000
Route DUFFY L10 RINGA Q39 ETIGA DCT INKOB Q39 NOMSU UQ4 WAL UY53 NUGRA
Aircraft A321/M-SDE3FGHIRWY/LB1

Departure

Time 2026-04-21 19:46
Airport George Best Belfast City Airport (EGAC)

Arrival

Time 2026-04-21 20:33
Airport London Heathrow Airport (EGLL)
Time Latitude Longitude Altitude Speed Heading
2026-04-21 19:36 54.61463 -5.87189 22 ft 0 kts 155°
2026-04-21 19:40 54.61475 -5.87198 21 ft 3 kts 155°
2026-04-21 19:40 54.61492 -5.87212 26 ft 3 kts 158°
2026-04-21 19:40 54.61511 -5.87222 23 ft 3 kts 178°
2026-04-21 19:40 54.61530 -5.87218 22 ft 3 kts 200°
2026-04-21 19:41 54.61546 -5.87205 26 ft 2 kts 215°
2026-04-21 19:41 54.61552 -5.87199 24 ft 0 kts 215°
2026-04-21 19:43 54.61550 -5.87201 24 ft 2 kts 215°
2026-04-21 19:43 54.61513 -5.87246 24 ft 11 kts 215°
2026-04-21 19:43 54.61438 -5.87334 21 ft 14 kts 215°
2026-04-21 19:43 54.61372 -5.87458 21 ft 15 kts 217°
2026-04-21 19:44 54.61279 -5.87569 18 ft 18 kts 214°
2026-04-21 19:44 54.61176 -5.87691 16 ft 18 kts 214°
2026-04-21 19:44 54.61092 -5.87802 19 ft 12 kts 237°
2026-04-21 19:44 54.61105 -5.87952 18 ft 15 kts 303°
2026-04-21 19:45 54.61166 -5.88020 18 ft 11 kts 19°
2026-04-21 19:45 54.61344 -5.87805 14 ft 69 kts 36°
2026-04-21 19:45 54.61951 -5.87075 27 ft 140 kts 37°
2026-04-21 19:45 54.62808 -5.86061 578 ft 155 kts 39°
2026-04-21 19:46 54.63745 -5.84927 1133 ft 175 kts 40°
2026-04-21 19:46 54.64807 -5.83637 1524 ft 200 kts 40°
2026-04-21 19:46 54.65818 -5.81871 1949 ft 216 kts 68°
2026-04-21 19:46 54.65922 -5.79286 2585 ft 226 kts 108°
2026-04-21 19:47 54.64960 -5.77111 3385 ft 238 kts 141°
2026-04-21 19:47 54.63465 -5.75772 4270 ft 245 kts 154°
2026-04-21 19:47 54.61858 -5.74734 5156 ft 249 kts 156°
2026-04-21 19:47 54.60223 -5.73705 6087 ft 251 kts 155°
2026-04-21 19:48 54.59140 -5.72981 6660 ft 253 kts 154°
2026-04-21 19:48 54.57500 -5.71803 7434 ft 257 kts 152°
2026-04-21 19:48 54.55855 -5.70538 8249 ft 260 kts 152°
2026-04-21 19:48 54.54204 -5.69209 9036 ft 264 kts 151°
2026-04-21 19:49 54.52541 -5.67835 9835 ft 267 kts 151°
2026-04-21 19:49 54.50863 -5.66430 10615 ft 271 kts 151°
2026-04-21 19:49 54.49098 -5.64936 10888 ft 294 kts 151°
2026-04-21 19:49 54.47195 -5.63318 11065 ft 317 kts 151°
2026-04-21 19:50 54.45148 -5.61579 11194 ft 339 kts 151°
2026-04-21 19:50 54.42971 -5.59736 11419 ft 356 kts 151°
2026-04-21 19:50 54.40838 -5.57528 11936 ft 360 kts 141°
2026-04-21 19:50 54.38976 -5.54641 12536 ft 362 kts 131°
2026-04-21 19:51 54.37445 -5.51204 13152 ft 365 kts 124°
2026-04-21 19:51 54.35993 -5.47603 13787 ft 369 kts 124°
2026-04-21 19:51 54.34519 -5.43961 14382 ft 373 kts 124°
2026-04-21 19:51 54.33028 -5.40284 14910 ft 377 kts 124°
2026-04-21 19:52 54.31524 -5.36585 15438 ft 380 kts 124°
2026-04-21 19:52 54.30004 -5.32861 15997 ft 383 kts 124°
2026-04-21 19:52 54.28482 -5.29141 16508 ft 387 kts 124°
2026-04-21 19:52 54.26902 -5.25402 17069 ft 389 kts 127°
2026-04-21 19:53 54.25221 -5.21734 17534 ft 394 kts 129°
2026-04-21 19:53 54.23469 -5.18115 18084 ft 396 kts 130°
2026-04-21 19:53 54.21681 -5.14510 18618 ft 398 kts 130°
2026-04-21 19:53 54.19880 -5.10889 19047 ft 403 kts 130°
2026-04-21 19:54 54.18067 -5.07211 19457 ft 407 kts 130°
2026-04-21 19:54 54.16239 -5.03469 19748 ft 414 kts 130°
2026-04-21 19:54 54.14390 -4.99662 20088 ft 420 kts 130°
2026-04-21 19:54 54.12506 -4.95769 20242 ft 431 kts 130°
2026-04-21 19:55 54.10579 -4.91780 20441 ft 441 kts 130°
2026-04-21 19:55 54.08618 -4.87719 20817 ft 445 kts 130°
2026-04-21 19:55 54.06644 -4.83646 21207 ft 449 kts 130°
2026-04-21 19:55 54.04641 -4.79525 21515 ft 455 kts 130°
2026-04-21 19:56 54.02642 -4.75308 21870 ft 459 kts 129°
2026-04-21 19:56 54.00683 -4.70986 22233 ft 464 kts 127°
2026-04-21 19:56 53.98741 -4.66577 22641 ft 467 kts 127°
2026-04-21 19:56 53.96802 -4.62127 23000 ft 471 kts 127°
2026-04-21 19:57 53.94840 -4.57627 23320 ft 476 kts 127°
2026-04-21 19:57 53.92845 -4.53100 23624 ft 481 kts 127°
2026-04-21 19:57 53.90809 -4.48537 23922 ft 486 kts 128°
2026-04-21 19:57 53.88743 -4.43955 24149 ft 492 kts 128°
2026-04-21 19:58 53.86679 -4.39397 24453 ft 495 kts 128°
2026-04-21 19:58 53.84631 -4.34685 24773 ft 498 kts 126°
2026-04-21 19:58 53.82643 -4.29873 25091 ft 500 kts 125°
2026-04-21 19:58 53.80684 -4.24981 25401 ft 502 kts 124°
2026-04-21 19:59 53.78734 -4.20065 25697 ft 504 kts 124°
2026-04-21 19:59 53.76767 -4.15137 25994 ft 506 kts 124°
2026-04-21 19:59 53.74774 -4.10216 26259 ft 509 kts 124°
2026-04-21 19:59 53.72755 -4.05299 26509 ft 511 kts 125°
2026-04-21 20:00 53.70717 -4.00384 26770 ft 512 kts 125°
2026-04-21 20:00 53.68667 -3.95466 27109 ft 511 kts 125°
2026-04-21 20:00 53.66620 -3.90563 27430 ft 511 kts 126°
2026-04-21 20:00 53.64575 -3.85667 27770 ft 510 kts 126°
2026-04-21 20:01 53.62529 -3.80773 28128 ft 510 kts 126°
2026-04-21 20:01 53.60491 -3.75896 28497 ft 509 kts 126°
2026-04-21 20:01 53.58453 -3.71020 28874 ft 508 kts 126°
2026-04-21 20:01 53.56418 -3.66163 29241 ft 508 kts 126°
2026-04-21 20:02 53.54386 -3.61321 29616 ft 507 kts 126°
2026-04-21 20:02 53.52342 -3.56468 29910 ft 509 kts 126°
2026-04-21 20:02 53.50292 -3.51615 30225 ft 510 kts 126°
2026-04-21 20:02 53.48239 -3.46745 30549 ft 510 kts 124°
2026-04-21 20:03 53.46435 -3.41638 30847 ft 509 kts 116°
2026-04-21 20:03 53.45008 -3.36214 31159 ft 507 kts 111°
2026-04-21 20:03 53.43637 -3.30768 31498 ft 506 kts 112°
2026-04-21 20:03 53.42259 -3.25346 31829 ft 505 kts 112°
2026-04-21 20:04 53.40893 -3.20019 32170 ft 504 kts 112°
2026-04-21 20:04 53.39412 -3.14699 32514 ft 503 kts 118°
2026-04-21 20:04 53.37556 -3.09741 32860 ft 501 kts 127°
2026-04-21 20:04 53.35475 -3.05060 33198 ft 500 kts 127°
2026-04-21 20:05 53.33395 -3.00395 33386 ft 501 kts 127°
2026-04-21 20:05 53.29210 -2.91039 33411 ft 502 kts 127°
2026-04-21 20:06 53.25020 -2.81695 33404 ft 502 kts 127°
2026-04-21 20:06 53.20828 -2.72347 33397 ft 503 kts 127°
2026-04-21 20:07 53.16645 -2.63082 33395 ft 503 kts 127°
2026-04-21 20:07 53.12444 -2.53754 33424 ft 504 kts 126°
2026-04-21 20:08 53.08462 -2.44164 33401 ft 504 kts 123°
2026-04-21 20:08 53.04507 -2.34527 33400 ft 504 kts 129°
2026-04-21 20:09 52.99413 -2.26623 33392 ft 501 kts 148°
2026-04-21 20:09 52.93508 -2.20500 33378 ft 501 kts 150°
2026-04-21 20:10 52.87606 -2.14334 33368 ft 502 kts 150°
2026-04-21 20:10 52.84663 -2.11245 33114 ft 502 kts 149°
2026-04-21 20:10 52.81709 -2.08145 32837 ft 502 kts 150°
2026-04-21 20:10 52.78755 -2.05053 32570 ft 503 kts 150°
2026-04-21 20:11 52.75791 -2.01961 32314 ft 504 kts 150°
2026-04-21 20:11 52.72817 -1.98874 32050 ft 506 kts 150°
2026-04-21 20:11 52.69824 -1.95784 31787 ft 508 kts 150°
2026-04-21 20:11 52.66826 -1.92694 31531 ft 509 kts 150°
2026-04-21 20:12 52.63822 -1.89603 31280 ft 510 kts 150°
2026-04-21 20:12 52.60803 -1.86500 31044 ft 512 kts 150°
2026-04-21 20:12 52.57776 -1.83390 30796 ft 513 kts 150°
2026-04-21 20:12 52.54774 -1.80305 30550 ft 501 kts 150°
2026-04-21 20:13 52.51900 -1.77351 30282 ft 486 kts 150°
2026-04-21 20:13 52.49036 -1.74408 29970 ft 472 kts 150°
2026-04-21 20:13 52.46292 -1.71596 29708 ft 458 kts 150°
2026-04-21 20:13 52.43668 -1.68913 29367 ft 447 kts 150°
2026-04-21 20:14 52.40961 -1.66160 27877 ft 461 kts 150°
2026-04-21 20:14 52.38209 -1.63378 26162 ft 482 kts 150°
2026-04-21 20:14 52.35322 -1.60465 24947 ft 489 kts 149°
2026-04-21 20:14 52.32418 -1.57529 23817 ft 493 kts 149°
2026-04-21 20:15 52.29516 -1.54592 22877 ft 486 kts 149°
2026-04-21 20:15 52.26673 -1.51713 21986 ft 478 kts 149°
2026-04-21 20:15 52.23867 -1.48871 21105 ft 470 kts 148°
2026-04-21 20:15 52.21187 -1.45918 20217 ft 461 kts 141°
2026-04-21 20:16 52.18763 -1.42545 19831 ft 457 kts 138°
2026-04-21 20:16 52.16367 -1.39172 19380 ft 451 kts 139°
2026-04-21 20:16 52.14038 -1.35933 19136 ft 427 kts 139°
2026-04-21 20:16 52.11838 -1.32896 19017 ft 403 kts 139°
2026-04-21 20:17 52.09753 -1.30023 18885 ft 382 kts 138°
2026-04-21 20:17 52.07783 -1.27304 18770 ft 362 kts 138°
2026-04-21 20:17 52.05911 -1.24713 18638 ft 345 kts 138°
2026-04-21 20:17 52.04135 -1.22252 18487 ft 328 kts 137°
2026-04-21 20:18 52.02999 -1.20677 18353 ft 318 kts 137°
2026-04-21 20:18 52.00828 -1.17672 18152 ft 300 kts 138°
2026-04-21 20:18 51.99246 -1.15485 17899 ft 293 kts 137°
2026-04-21 20:18 51.97703 -1.13349 17548 ft 290 kts 137°
2026-04-21 20:19 51.96177 -1.11235 17186 ft 287 kts 137°
2026-04-21 20:19 51.94661 -1.09138 16840 ft 284 kts 136°
2026-04-21 20:19 51.93163 -1.07072 16507 ft 282 kts 136°
2026-04-21 20:19 51.91676 -1.05024 16155 ft 280 kts 138°
2026-04-21 20:20 51.90212 -1.03010 15791 ft 278 kts 137°
2026-04-21 20:20 51.88739 -1.00986 15454 ft 277 kts 137°
2026-04-21 20:20 51.87260 -0.98955 15110 ft 274 kts 137°
2026-04-21 20:20 51.85834 -0.96918 14774 ft 271 kts 130°
2026-04-21 20:21 51.84756 -0.94507 14424 ft 267 kts 115°
2026-04-21 20:21 51.83947 -0.91812 14076 ft 266 kts 114°
2026-04-21 20:21 51.83137 -0.89138 13729 ft 264 kts 114°
2026-04-21 20:21 51.82328 -0.86498 13402 ft 261 kts 114°
2026-04-21 20:22 51.81498 -0.83897 12903 ft 265 kts 121°
2026-04-21 20:22 51.78250 -0.80761 10922 ft 298 kts 168°
2026-04-21 20:22 51.76166 -0.80359 10320 ft 295 kts 171°
2026-04-21 20:23 51.74172 -0.80060 9913 ft 284 kts 171°
2026-04-21 20:23 51.72223 -0.79785 9328 ft 279 kts 171°
2026-04-21 20:23 51.70294 -0.79527 8736 ft 277 kts 171°
2026-04-21 20:23 51.68385 -0.79282 8157 ft 274 kts 171°
2026-04-21 20:24 51.66492 -0.79049 7584 ft 272 kts 171°
2026-04-21 20:24 51.64604 -0.79292 7009 ft 275 kts 188°
2026-04-21 20:24 51.62791 -0.80317 6411 ft 277 kts 197°
2026-04-21 20:24 51.60998 -0.81417 5822 ft 275 kts 196°
2026-04-21 20:25 51.59216 -0.82499 5282 ft 271 kts 196°
2026-04-21 20:25 51.57512 -0.83545 5150 ft 253 kts 196°
2026-04-21 20:25 51.55930 -0.84531 5023 ft 235 kts 196°
2026-04-21 20:25 51.54464 -0.85463 4897 ft 217 kts 196°
2026-04-21 20:26 51.53113 -0.86342 4760 ft 202 kts 196°
2026-04-21 20:26 51.51829 -0.87164 4439 ft 195 kts 188°
2026-04-21 20:26 51.50540 -0.87186 4034 ft 181 kts 159°
2026-04-21 20:26 51.49364 -0.86559 3677 ft 177 kts 152°
2026-04-21 20:27 51.48223 -0.85831 3313 ft 176 kts 151°
2026-04-21 20:27 51.47281 -0.84753 3017 ft 159 kts 111°
2026-04-21 20:27 51.47228 -0.83051 2978 ft 159 kts 80°
2026-04-21 20:27 51.47423 -0.81315 2948 ft 158 kts 83°
2026-04-21 20:28 51.47521 -0.79556 2981 ft 158 kts 86°
2026-04-21 20:28 51.47568 -0.77796 2995 ft 158 kts 87°
2026-04-21 20:28 51.47593 -0.76033 3015 ft 158 kts 88°
2026-04-21 20:28 51.47611 -0.74270 3012 ft 158 kts 88°
2026-04-21 20:29 51.47624 -0.72498 2986 ft 159 kts 88°
2026-04-21 20:29 51.47635 -0.70735 2849 ft 155 kts 88°
2026-04-21 20:29 51.47645 -0.69067 2670 ft 145 kts 88°
2026-04-21 20:29 51.47655 -0.67485 2494 ft 139 kts 88°
2026-04-21 20:30 51.47663 -0.65959 2319 ft 136 kts 87°
2026-04-21 20:30 51.47672 -0.64443 2128 ft 136 kts 87°
2026-04-21 20:30 51.47680 -0.62927 1932 ft 135 kts 87°
2026-04-21 20:30 51.47687 -0.61497 1749 ft 124 kts 86°
2026-04-21 20:31 51.47694 -0.60127 1578 ft 122 kts 86°
2026-04-21 20:31 51.47702 -0.58765 1422 ft 122 kts 86°
2026-04-21 20:31 51.47715 -0.57406 1251 ft 122 kts 87°
2026-04-21 20:31 51.47718 -0.56042 1051 ft 124 kts 86°
2026-04-21 20:32 51.47730 -0.54636 819 ft 127 kts 86°
2026-04-21 20:32 51.47742 -0.53219 657 ft 128 kts 86°
2026-04-21 20:32 51.47743 -0.51771 522 ft 134 kts 88°
2026-04-21 20:32 51.47748 -0.50276 360 ft 137 kts 89°
2026-04-21 20:33 51.47751 -0.48726 180 ft 137 kts 86°
2026-04-21 20:33 51.47754 -0.47290 87 ft 116 kts 88°
2026-04-21 20:33 51.47760 -0.46294 87 ft 59 kts 89°
2026-04-21 20:33 51.47762 -0.45774 84 ft 40 kts 89°
2026-04-21 20:34 51.47725 -0.45480 85 ft 19 kts 149°
2026-04-21 20:34 51.47610 -0.45465 86 ft 15 kts 179°
2026-04-21 20:34 51.47541 -0.45465 86 ft 13 kts 184°
2026-04-21 20:34 51.47508 -0.45625 90 ft 13 kts 268°
2026-04-21 20:35 51.47512 -0.45726 89 ft 14 kts 277°
2026-04-21 20:35 51.47517 -0.45891 86 ft 16 kts 269°
2026-04-21 20:35 51.47517 -0.46065 86 ft 12 kts 270°
2026-04-21 20:35 51.47489 -0.46181 89 ft 12 kts 192°
2026-04-21 20:36 51.47434 -0.46111 89 ft 7 kts 87°
2026-04-21 20:36 51.47449 -0.46056 87 ft 6 kts 68°
2026-04-21 20:36 51.47454 -0.46041 88 ft 0 kts 66°
2026-04-21 20:36 51.47456 -0.46034 88 ft 0 kts 65°